Friday Harbor, WA

8:38 PM PST on February 12, 2016 (GMT -0800)
Friday Harbor

Weather History for KFHR - January, 2012

Change the Weather History Date:

Sunday, January 8, 2012

  Actual Average Record
Temperature  
Mean Temperature 48 °F -  
Max Temperature 50 °F 43 °F 51 °F (2002)
Min Temperature 46 °F 35 °F 28 °F (1998)
Degree Days  
Heating Degree Days 17    
Moisture  
Dew Point 40 °F    
Average Humidity 78    
Maximum Humidity 86    
Minimum Humidity 71    
Precipitation  
Precipitation 0.00 in - - ()
Sea Level Pressure  
Sea Level Pressure 30.28 in    
Wind  
Wind Speed 7 mph (ESE)    
Max Wind Speed 12 mph    
Max Gust Speed -    
Visibility 10 miles    
Events      
Averages and records for this station are not official NWS values.
T = Trace of Precipitation, MM = Missing Value Source: NWS Daily Summary

Daily Weather History Graph

Daily Weather History Graph

Search for Another Location

Airport or City:

Trip Planner

Search our weather history database for the weather conditions in past years. The results will help you decide how hot, cold, wet, or windy it might be!

Date:

Astronomy

Jan. 08, 2012 Rise Set
Actual Time 8:02 AM PST 4:34 PM PST
Civil Twilight 7:26 AM PST 5:11 PM PST
Nautical Twilight 6:47 AM PST 5:50 PM PST
Astronomical Twilight 6:09 AM PST 6:28 PM PST
Moon 4:25 PM PST (1/8) 7:24 AM PST (1/8)
Length of Visible Light 9h 44m
Length of Day
8h 32m
Full, 100% of the Moon is Illuminated
Jan 8
Full
Jan 8
Full
Jan 16
Last Quarter
Jan 22
New
Jan 30
First Quarter

Hourly Weather History & Observations

Time (PST) Temp. Windchill Dew Point Humidity Pressure Visibility Wind Dir Wind Speed Gust Speed Precip Events Conditions
12:10 AM 46.4 °F 41.9 °F 41.0 °F 81% 30.36 in 10.0 mi ESE 9.2 mph - N/A   Overcast
12:53 AM 46.0 °F 42.5 °F 39.9 °F 79% 30.37 in 10.0 mi East 6.9 mph - N/A   Overcast
1:53 AM 46.0 °F 43.9 °F 39.9 °F 79% 30.36 in 10.0 mi East 4.6 mph - N/A   Overcast
2:53 AM 46.0 °F 43.1 °F 39.0 °F 76% 30.36 in 10.0 mi East 5.8 mph - N/A   Overcast
3:53 AM 46.0 °F 41.9 °F 39.0 °F 76% 30.34 in 10.0 mi East 8.1 mph - N/A   Overcast
4:14 AM 46.4 °F 42.4 °F 39.2 °F 76% 30.34 in 10.0 mi ESE 8.1 mph - N/A   Overcast
5:53 AM 46.0 °F 41.4 °F 39.9 °F 79% 30.33 in 10.0 mi East 9.2 mph - N/A   Overcast
6:53 AM 46.0 °F 41.0 °F 39.9 °F 79% 30.31 in 10.0 mi ESE 10.4 mph - N/A   Overcast
7:53 AM 46.0 °F 40.6 °F 39.9 °F 79% 30.30 in 10.0 mi SE 11.5 mph - N/A   Overcast
8:27 AM 46.4 °F 41.5 °F 39.2 °F 76% 30.30 in 10.0 mi SE 10.4 mph - N/A   Overcast
8:53 AM 46.9 °F - 39.9 °F 77% 30.31 in 10.0 mi SE 10.4 mph - N/A   Overcast
9:53 AM 46.9 °F - 39.9 °F 77% 30.32 in 10.0 mi ESE 10.4 mph - N/A   Overcast
10:53 AM 46.9 °F - 39.9 °F 77% 30.32 in 10.0 mi SE 9.2 mph - N/A   Overcast
11:04 AM 46.4 °F 41.9 °F 39.2 °F 76% 30.31 in 10.0 mi SE 9.2 mph - N/A   Overcast
11:53 AM 46.9 °F - 41.0 °F 80% 30.30 in 10.0 mi SSE 6.9 mph - N/A   Overcast
12:53 PM 48.0 °F - 41.0 °F 77% 30.28 in 10.0 mi ESE 5.8 mph - N/A   Overcast
1:53 PM 48.0 °F - 41.0 °F 77% 30.27 in 10.0 mi SE 4.6 mph - N/A   Overcast
2:53 PM 50.0 °F - 41.0 °F 71% 30.24 in 10.0 mi SE 3.5 mph - N/A   Overcast
4:53 PM 48.0 °F - 39.9 °F 74% 30.24 in 10.0 mi Calm Calm - N/A   Overcast
5:53 PM 48.0 °F - 39.9 °F 74% 30.22 in 10.0 mi North 4.6 mph - N/A   Overcast
6:53 PM 46.9 °F - 39.9 °F 77% 30.22 in 10.0 mi Calm Calm - N/A   Mostly Cloudy
7:53 PM 46.0 °F - 39.9 °F 79% 30.21 in 10.0 mi Calm Calm - N/A   Overcast
8:53 PM 46.9 °F - 41.0 °F 80% 30.20 in 10.0 mi NE 4.6 mph - N/A   Overcast
9:53 PM 46.9 °F - 41.0 °F 80% 30.20 in 10.0 mi NE 3.5 mph - N/A   Overcast
10:53 PM 46.9 °F - 41.0 °F 80% 30.19 in 10.0 mi ENE 3.5 mph - 0.00 in   Overcast
11:53 PM 46.0 °F - 42.1 °F 86% 30.18 in 10.0 mi Calm Calm - N/A   Overcast